Home   Weather   Owensboro   Past weeks

Flag for USA Past Weather in Owensboro, Kentucky, USA — Yesterday and Last 2 Weeks

Now
61 °F

Light rain. Mostly cloudy.


Feels Like: 61 °F
Forecast: 52 / 64 °F
Wind: 22 mph from Southwest

Location: Owensboro / Daviess

Current Time: May 1, 2017 at 1:35:27 am

Latest Report: May 1, 2017 at 12:56 am


Visibility: 7 mi

Pressure: 29.68 "Hg

Humidity: 90%

Dew Point: 58 °F

Location of OwensboroLocation

Past Weather in Owensboro — Graph

°F

Owensboro Temperature Yesterday

Maximum temperature yesterday: 80 °F (at 1:56 pm)
Minimum temperature yesterday: 66 °F (at 2:56 am)
Average temperature yesterday: 71 °F

High & Low Weather Summary for the Past Weeks

 TemperatureHumidityPressure
High87 °F (Apr 29, 4:56 pm)100% (Apr 17, 5:06 am)30.19 "Hg (Apr 17, 5:06 am)
Low46 °F (Apr 22, 5:29 am)33% (Apr 23, 3:56 pm)29.52 "Hg (Apr 26, 7:56 pm)
Average65 °F74%29.95 "Hg
* Reported Apr 16 12:56 am — May 1 12:17 am, Owensboro, Weather by CustomWeather, © 2017

Note: Actual official high and low records may vary slightly from our data, if they occured in-between our weather recording intervals... More about our weather records

Advertising

Owensboro Weather History for the Previous 24 Hours

Scroll right to see more
 ConditionsComfort  
Time TempWeatherWind HumidityBarometerVisibility
12:17 am
Mon, May 1
66 °FLight rain. Overcast.18 mph94%29.65 "Hg9 mi
11:56 pm
Sun, Apr 30
66 °FLight rain. Mostly cloudy.18 mph93%29.69 "Hg7 mi
11:26 pm68 °FMostly cloudy.18 mph88%29.66 "Hg10 mi
10:56 pm69 °FMostly cloudy.21 mph81%29.68 "Hg10 mi
10:06 pm70 °FThunderstorms. Overcast.16 mph78%29.67 "Hg10 mi
9:56 pm69 °FPassing clouds.20 mph81%29.69 "Hg10 mi
8:56 pm70 °FPassing clouds.17 mph76%29.71 "Hg10 mi
7:56 pm71 °FPassing clouds.20 mph73%29.72 "Hg10 mi
6:56 pm73 °FClear.21 mph71%29.72 "Hg10 mi
5:56 pm74 °FSunny.17 mph71%29.72 "Hg10 mi
4:56 pm77 °FScattered clouds.21 mph66%29.73 "Hg10 mi
3:56 pm78 °FLight rain. Mostly cloudy.24 mph66%29.73 "Hg5 mi
2:56 pm79 °FBroken clouds.17 mph65%29.77 "Hg10 mi
1:56 pm80 °FCloudy.22 mph62%29.80 "Hg10 mi
12:56 pm79 °FPartly sunny.17 mph69%29.83 "Hg10 mi
11:56 am75 °FMostly cloudy.17 mph79%29.85 "Hg10 mi
10:56 am71 °FMostly cloudy.15 mph81%29.87 "Hg9 mi
9:56 am67 °FRain. Fog.8 mph90%29.91 "Hg3 mi
8:56 am67 °FOvercast.7 mph90%29.91 "Hg10 mi
7:56 am67 °FLight rain. Overcast.12 mph87%29.92 "Hg7 mi
6:56 am68 °FOvercast.14 mph87%29.89 "Hg7 mi
5:56 am69 °FLight rain. Overcast.8 mph84%29.87 "Hg7 mi
4:56 am66 °FScattered clouds.6 mph87%29.84 "Hg10 mi
3:56 am66 °FPassing clouds.6 mph87%29.85 "Hg10 mi
2:56 am66 °FPassing clouds.6 mph87%29.87 "Hg10 mi
1:56 am67 °FPassing clouds.5 mph85%29.90 "Hg10 mi
Weather by CustomWeather, © 2017

See weather overviewHow to use our weather pages